,

(GMT )
Banff

Weather History for CWZG - October, 2012

Change the Weather History Date:

Thursday, October 11, 2012

  Actual Average Record
Temperature  
Mean Temperature 36 °F -  
Max Temperature 50 °F - - ()
Min Temperature 23 °F - - ()
Degree Days  
Heating Degree Days 28    
Moisture  
Dew Point 25 °F    
Average Humidity 70    
Maximum Humidity 91    
Minimum Humidity 43    
Precipitation  
Precipitation 0.00 in - - ()
Sea Level Pressure  
Sea Level Pressure 30.11 in    
Wind  
Wind Speed 5 mph ()    
Max Wind Speed 9 mph    
Max Gust Speed -    
T = Trace of Precipitation, MM = Missing Value Source: Averaged Metar Reports

Daily Weather History Graph

Daily Weather History Graph

Search for Another Location

Airport or City:

Trip Planner

Search our weather history database for the weather conditions in past years. The results will help you decide how hot, cold, wet, or windy it might be!

Date:

Astronomy

Oct. 11, 2012 Rise Set
Actual Time 8:00 AM MDT 6:56 PM MDT
Civil Twilight 7:26 AM MDT 7:29 PM MDT
Nautical Twilight 6:48 AM MDT 8:08 PM MDT
Astronomical Twilight 6:09 AM MDT 8:46 PM MDT
Moon 3:17 AM MDT (10/11) 4:56 PM MDT (10/11)
Length of Visible Light 12h 02m
Length of Day
10h 56m
Waning Crescent, 18% of the Moon is Illuminated
Oct 11
Waning Crescent
Oct 15
New
Oct 21
First Quarter
Oct 29
Full
Nov 6
Last Quarter

Hourly Weather History & Observations

Time (MDT) Temp. Windchill Dew Point Humidity Pressure Visibility Wind Dir Wind Speed Gust Speed Precip Events Conditions
12:00 AM 27.7 °F 19.6 °F 22.1 °F 80% 30.26 in - NNE 8.1 mph - N/A   Unknown
1:00 AM 27.7 °F 20.4 °F 21.9 °F 79% 30.26 in - NNE 6.9 mph - N/A   Unknown
2:00 AM 27.1 °F 21.8 °F 22.1 °F 81% 30.26 in - NNE 4.6 mph - N/A   Unknown
3:00 AM 26.8 °F 20.2 °F 21.9 °F 82% 30.26 in - NNE 5.8 mph - N/A   Unknown
4:00 AM 26.8 °F 22.8 °F 22.3 °F 83% 30.26 in - NE 3.5 mph - N/A   Unknown
5:00 AM 26.8 °F 22.8 °F 22.5 °F 84% 30.25 in - ENE 3.5 mph - N/A   Unknown
6:00 AM 26.6 °F - 22.6 °F 85% 30.25 in - ENE 2.3 mph - N/A   Unknown
7:00 AM 26.6 °F 22.6 °F 22.8 °F 86% 30.23 in - ENE 3.5 mph - N/A   Unknown
8:00 AM 24.8 °F - 21.7 °F 88% 30.22 in - Calm Calm - N/A   Unknown
9:00 AM 23.9 °F - 21.7 °F 91% 30.22 in - Calm Calm - N/A   Unknown
10:00 AM 28.8 °F 21.7 °F 23.0 °F 79% 30.19 in - SSW 6.9 mph - N/A   Unknown
11:00 AM 31.6 °F 26.0 °F 21.9 °F 67% 30.15 in - WSW 5.8 mph - N/A   Unknown
12:00 PM 38.1 °F 31.7 °F 23.5 °F 56% 30.11 in - SW 9.2 mph - N/A   Unknown
3:00 PM 49.8 °F - 28.4 °F 44% 29.97 in - SW 8.1 mph - N/A   Unknown
4:00 PM 50.2 °F - 28.9 °F 44% 29.96 in - SW 8.1 mph - N/A   Unknown
5:00 PM 50.9 °F - 28.8 °F 43% 29.95 in - SW 8.1 mph - N/A   Unknown
6:00 PM 49.6 °F - 29.1 °F 45% 29.93 in - SW 3.5 mph - N/A   Unknown
7:00 PM 43.7 °F - 28.9 °F 56% 29.94 in - WSW 2.3 mph - N/A   Unknown
8:00 PM 41.5 °F 39.6 °F 29.3 °F 62% 29.93 in - SSW 3.5 mph - N/A   Unknown
10:00 PM 37.6 °F 35.1 °F 28.8 °F 70% 29.90 in - SSW 3.5 mph - N/A   Unknown
11:00 PM 35.4 °F - 28.0 °F 75% 29.88 in - SSW 2.3 mph - N/A   Unknown